Simultaneous Nadir Overpasses (SNOs) Predictions

Prediction of SNOs between AURA and NPP Satellite Orbit:

Table of predicted SNOs for the next 14.0 days since TLE Epoch: 6/16/2022
Index Date (AURA) Time (AURA) Lat,Lon (AURA) SZA (AURA ) Date (NPP) Time (NPP) Lat,Lon (NPP) SZA (NPP ) Distance(km) Time Diff (sec)
1 06/18/2022 11:25:29 79.34, -95.61 69.67 06/18/2022 11:24:33 79.34, -95.52 69.69 1.99 56
2 06/18/2022 12:14:51 -79.54, 73.38 110.63 06/18/2022 12:15:13 -79.53, 73.28 110.63 2.06 22
3 06/21/2022 03:41:58 79.39, 20.62 69.59 06/21/2022 03:41:30 79.39, 20.61 69.61 0.33 28
4 06/21/2022 04:31:18 -79.66,-169.83 110.83 06/21/2022 04:32:07 -79.67,-169.74 110.88 1.99 49
5 06/23/2022 19:11:58 -70.79, -57.57 100.33 06/23/2022 19:10:45 -71.15, -59.78 100.02 89.52 73
6 06/23/2022 19:58:24 79.50, 137.23 69.47 06/23/2022 19:58:24 79.50, 137.25 69.47 0.42 0
7 06/23/2022 20:45:04 -81.14, 7.78 119.94 06/23/2022 20:46:17 -80.36, 5.69 120.28 95.08 73
8 06/26/2022 11:25:32 -79.33, 84.31 110.19 06/26/2022 11:24:43 -79.33, 84.33 110.15 0.45 49
9 06/26/2022 12:14:52 79.54,-106.57 69.50 06/26/2022 12:15:21 79.54,-106.67 69.50 2.16 29
10 06/29/2022 03:41:58 -79.43,-159.13 110.20 06/29/2022 03:41:38 -79.43,-159.09 110.19 0.77 20



Historial Predications of SNOs between AURA and NPP
